timestamp,wind_dir_avg,wind_spd_max_dir,wind_spd_avg,wind_spd_gust,battery_voltage,lat,long
2018-04-27 00:00:00+00:00,239.0,235.0,2.54,3.12,,47.59359,-54.27349
2018-04-27 00:10:00+00:00,227.0,220.0,4.26,5.49,,47.59359,-54.27349
2018-04-27 00:20:00+00:00,252.0,250.0,3.95,4.66,,47.59359,-54.27349
2018-04-27 00:30:00+00:00,252.0,255.0,4.14,4.82,,47.59359,-54.27349
2018-04-27 00:40:00+00:00,262.0,261.0,5.69,6.04,,47.59359,-54.27349
2018-04-27 00:50:00+00:00,266.0,268.0,4.71,5.53,,47.59359,-54.27349
2018-04-27 01:00:00+00:00,271.0,270.0,5.44,5.72,,47.59359,-54.27349
2018-04-27 01:10:00+00:00,221.0,216.0,9.2,10.3,,47.59359,-54.27349
2018-04-27 01:20:00+00:00,227.0,230.0,10.82,12.52,,47.59359,-54.27349
2018-04-27 01:30:00+00:00,217.0,217.0,9.91,12.13,,47.59359,-54.27349
2018-04-27 01:40:00+00:00,217.0,220.0,9.4,10.52,,47.59359,-54.27349
2018-04-27 01:50:00+00:00,212.0,212.0,11.77,13.3,,47.59359,-54.27349
2018-04-27 02:00:00+00:00,211.0,212.0,11.3,13.09,,47.59359,-54.27349
2018-04-27 02:10:00+00:00,208.0,208.0,12.03,13.23,,47.59359,-54.27349
2018-04-27 02:20:00+00:00,214.0,214.0,11.41,12.38,,47.59359,-54.27349
2018-04-27 02:30:00+00:00,227.0,226.0,9.78,10.76,,47.59359,-54.27349
2018-04-27 02:40:00+00:00,218.0,212.0,10.19,12.09,,47.59359,-54.27349
2018-04-27 02:50:00+00:00,219.0,218.0,11.52,13.39,,47.59359,-54.27349
2018-04-27 03:00:00+00:00,216.0,219.0,12.32,13.64,,47.59359,-54.27349
2018-04-27 03:10:00+00:00,216.0,218.0,11.91,13.32,,47.59359,-54.27349
2018-04-27 03:20:00+00:00,219.0,224.0,12.07,12.99,,47.59359,-54.27349
2018-04-27 03:30:00+00:00,215.0,212.0,12.5,14.38,,47.59359,-54.27349
2018-04-27 03:40:00+00:00,214.0,213.0,12.26,13.6,,47.59359,-54.27349
2018-04-27 03:50:00+00:00,212.0,206.0,12.93,14.51,,47.59359,-54.27349
2018-04-27 04:00:00+00:00,212.0,216.0,13.37,15.2,,47.59359,-54.27349
2018-04-27 04:10:00+00:00,213.0,210.0,13.12,14.76,,47.59359,-54.27349
2018-04-27 04:20:00+00:00,216.0,217.0,12.74,14.66,,47.59359,-54.27349
2018-04-27 04:30:00+00:00,214.0,210.0,12.56,14.22,,47.59359,-54.27349
2018-04-27 04:40:00+00:00,206.0,206.0,15.24,17.14,,47.59359,-54.27349
2018-04-27 04:50:00+00:00,207.0,204.0,15.28,17.19,,47.59359,-54.27349
2018-04-27 05:00:00+00:00,208.0,209.0,16.2,20.57,,47.59359,-54.27349
2018-04-27 05:10:00+00:00,208.0,209.0,16.53,18.78,,47.59359,-54.27349
2018-04-27 05:20:00+00:00,210.0,206.0,14.66,16.84,,47.59359,-54.27349
2018-04-27 05:30:00+00:00,209.0,208.0,15.15,17.54,,47.59359,-54.27349
2018-04-27 05:40:00+00:00,208.0,207.0,15.85,18.58,,47.59359,-54.27349
2018-04-27 05:50:00+00:00,205.0,202.0,17.62,20.34,,47.59359,-54.27349
2018-04-27 06:00:00+00:00,204.0,206.0,16.54,19.38,,47.59359,-54.27349
2018-04-27 06:10:00+00:00,208.0,207.0,16.71,21.2,,47.59359,-54.27349
2018-04-27 06:20:00+00:00,205.0,210.0,15.87,19.1,,47.59359,-54.27349
2018-04-27 06:30:00+00:00,208.0,203.0,18.96,21.95,,47.59359,-54.27349
2018-04-27 06:40:00+00:00,207.0,204.0,16.28,19.38,,47.59359,-54.27349
2018-04-27 06:50:00+00:00,210.0,214.0,15.98,19.43,,47.59359,-54.27349
2018-04-27 07:00:00+00:00,210.0,209.0,17.07,19.38,,47.59359,-54.27349
2018-04-27 07:10:00+00:00,208.0,199.0,16.02,18.52,,47.59359,-54.27349
2018-04-27 07:20:00+00:00,208.0,207.0,17.35,20.57,,47.59359,-54.27349
2018-04-27 07:30:00+00:00,208.0,211.0,18.97,22.94,,47.59359,-54.27349
2018-04-27 07:40:00+00:00,207.0,208.0,19.73,23.8,,47.59359,-54.27349
2018-04-27 07:50:00+00:00,208.0,201.0,17.68,21.58,,47.59359,-54.27349
2018-04-27 08:00:00+00:00,204.0,198.0,19.09,23.18,,47.59359,-54.27349
2018-04-27 08:10:00+00:00,204.0,205.0,19.56,22.1,,47.59359,-54.27349
2018-04-27 08:20:00+00:00,204.0,202.0,18.41,21.12,,47.59359,-54.27349
2018-04-27 08:30:00+00:00,209.0,208.0,19.23,24.88,,47.59359,-54.27349
2018-04-27 08:40:00+00:00,207.0,213.0,19.06,23.36,,47.59359,-54.27349
2018-04-27 08:50:00+00:00,206.0,211.0,19.96,24.64,,47.59359,-54.27349
2018-04-27 09:00:00+00:00,212.0,214.0,18.78,22.53,,47.59359,-54.27349
2018-04-27 09:10:00+00:00,212.0,211.0,18.35,23.46,,47.59359,-54.27349
2018-04-27 09:20:00+00:00,218.0,224.0,16.94,21.33,,47.59359,-54.27349
2018-04-27 09:30:00+00:00,214.0,207.0,15.74,17.17,,47.59359,-54.27349
2018-04-27 09:40:00+00:00,223.0,225.0,13.27,14.93,,47.59359,-54.27349
2018-04-27 09:50:00+00:00,225.0,223.0,17.08,21.94,,47.59359,-54.27349
2018-04-27 10:00:00+00:00,225.0,225.0,16.58,19.33,,47.59359,-54.27349
2018-04-27 10:10:00+00:00,221.0,225.0,15.88,18.4,,47.59359,-54.27349
2018-04-27 10:20:00+00:00,225.0,233.0,15.85,19.76,,47.59359,-54.27349
2018-04-27 10:30:00+00:00,229.0,231.0,15.62,17.52,,47.59359,-54.27349
2018-04-27 10:40:00+00:00,225.0,230.0,16.94,19.43,,47.59359,-54.27349
2018-04-27 10:50:00+00:00,224.0,227.0,17.57,20.26,,47.59359,-54.27349
2018-04-27 11:00:00+00:00,221.0,224.0,17.89,21.84,,47.59359,-54.27349
2018-04-27 11:10:00+00:00,225.0,229.0,16.76,18.75,,47.59359,-54.27349
2018-04-27 11:20:00+00:00,268.0,267.0,15.95,18.79,,47.59359,-54.27349
2018-04-27 11:30:00+00:00,248.0,253.0,14.71,17.62,,47.59359,-54.27349
2018-04-27 11:40:00+00:00,238.0,246.0,15.3,17.84,,47.59359,-54.27349
2018-04-27 11:50:00+00:00,229.0,219.0,15.53,17.93,,47.59359,-54.27349
2018-04-27 12:00:00+00:00,231.0,234.0,14.94,17.99,,47.59359,-54.27349
2018-04-27 12:10:00+00:00,233.0,229.0,13.45,17.47,,47.59359,-54.27349
2018-04-27 12:20:00+00:00,237.0,231.0,11.24,13.18,,47.59359,-54.27349
2018-04-27 12:30:00+00:00,239.0,236.0,13.87,16.28,,47.59359,-54.27349
2018-04-27 12:40:00+00:00,234.0,236.0,15.1,16.41,,47.59359,-54.27349
2018-04-27 12:50:00+00:00,234.0,235.0,14.83,17.68,,47.59359,-54.27349
2018-04-27 13:00:00+00:00,230.0,231.0,14.79,16.71,,47.59359,-54.27349
2018-04-27 13:10:00+00:00,229.0,234.0,17.87,21.63,,47.59359,-54.27349
2018-04-27 13:20:00+00:00,230.0,229.0,16.46,19.64,,47.59359,-54.27349
2018-04-27 13:30:00+00:00,229.0,227.0,17.25,20.5,,47.59359,-54.27349
2018-04-27 13:40:00+00:00,230.0,233.0,15.52,20.88,,47.59359,-54.27349
2018-04-27 13:50:00+00:00,231.0,234.0,13.46,16.81,,47.59359,-54.27349
2018-04-27 14:00:00+00:00,232.0,231.0,12.11,14.25,,47.59359,-54.27349
2018-04-27 14:10:00+00:00,231.0,227.0,11.68,13.92,,47.59359,-54.27349
2018-04-27 14:20:00+00:00,232.0,237.0,9.9,12.13,,47.59359,-54.27349
2018-04-27 14:30:00+00:00,228.0,228.0,12.17,15.43,,47.59359,-54.27349
2018-04-27 14:40:00+00:00,230.0,231.0,12.82,14.65,,47.59359,-54.27349
2018-04-27 14:50:00+00:00,228.0,229.0,13.32,15.06,,47.59359,-54.27349
2018-04-27 15:00:00+00:00,228.0,225.0,12.68,14.05,,47.59359,-54.27349
2018-04-27 15:10:00+00:00,225.0,225.0,13.93,16.76,,47.59359,-54.27349
2018-04-27 15:20:00+00:00,226.0,222.0,14.14,15.98,,47.59359,-54.27349
2018-04-27 15:30:00+00:00,228.0,223.0,12.69,15.4,,47.59359,-54.27349
2018-04-27 15:40:00+00:00,225.0,223.0,13.39,15.19,,47.59359,-54.27349
2018-04-27 15:50:00+00:00,223.0,224.0,13.96,16.42,,47.59359,-54.27349
2018-04-27 16:00:00+00:00,225.0,221.0,13.9,16.02,,47.59359,-54.27349
2018-04-27 16:10:00+00:00,226.0,230.0,15.41,17.21,,47.59359,-54.27349
2018-04-27 16:20:00+00:00,225.0,223.0,15.86,17.87,,47.59359,-54.27349
2018-04-27 16:30:00+00:00,227.0,229.0,14.73,16.69,,47.59359,-54.27349
2018-04-27 16:40:00+00:00,226.0,227.0,14.4,16.58,,47.59359,-54.27349
2018-04-27 16:50:00+00:00,226.0,230.0,14.48,16.6,,47.59359,-54.27349
2018-04-27 17:00:00+00:00,225.0,227.0,15.42,17.38,,47.59359,-54.27349
2018-04-27 17:10:00+00:00,226.0,227.0,15.39,17.88,,47.59359,-54.27349
2018-04-27 17:20:00+00:00,227.0,227.0,14.51,17.48,,47.59359,-54.27349
2018-04-27 17:30:00+00:00,229.0,228.0,13.66,16.15,,47.59359,-54.27349
2018-04-27 17:40:00+00:00,228.0,226.0,12.8,14.69,,47.59359,-54.27349
2018-04-27 17:50:00+00:00,226.0,229.0,13.63,14.81,,47.59359,-54.27349
2018-04-27 18:00:00+00:00,225.0,228.0,12.46,14.06,,47.59359,-54.27349
2018-04-27 18:10:00+00:00,222.0,221.0,12.52,13.83,,47.59359,-54.27349
2018-04-27 18:20:00+00:00,221.0,221.0,13.11,14.74,,47.59359,-54.27349
2018-04-27 18:30:00+00:00,222.0,221.0,12.75,14.28,,47.59359,-54.27349
2018-04-27 18:40:00+00:00,223.0,220.0,12.38,14.48,,47.59359,-54.27349
2018-04-27 18:50:00+00:00,224.0,221.0,12.42,13.67,,47.59359,-54.27349
2018-04-27 19:00:00+00:00,221.0,226.0,12.07,13.85,,47.59359,-54.27349
2018-04-27 19:10:00+00:00,210.0,227.0,10.2,12.02,,47.59359,-54.27349
2018-04-27 19:20:00+00:00,208.0,220.0,10.21,11.78,,47.59359,-54.27349
2018-04-27 19:30:00+00:00,217.0,225.0,10.05,11.58,,47.59359,-54.27349
2018-04-27 19:40:00+00:00,219.0,221.0,9.56,10.98,,47.59359,-54.27349
2018-04-27 19:50:00+00:00,219.0,222.0,9.62,10.75,,47.59359,-54.27349
2018-04-27 20:00:00+00:00,221.0,220.0,9.23,10.22,,47.59359,-54.27349
2018-04-27 20:10:00+00:00,220.0,222.0,10.04,11.28,,47.59359,-54.27349
2018-04-27 20:20:00+00:00,217.0,217.0,9.95,10.73,,47.59359,-54.27349
2018-04-27 20:30:00+00:00,214.0,215.0,9.56,10.27,,47.59359,-54.27349
2018-04-27 20:40:00+00:00,216.0,216.0,9.53,10.54,,47.59359,-54.27349
2018-04-27 20:50:00+00:00,218.0,220.0,9.82,10.73,,47.59359,-54.27349
2018-04-27 21:00:00+00:00,221.0,222.0,9.85,10.75,,47.59359,-54.27349
2018-04-27 21:10:00+00:00,220.0,217.0,8.89,10.25,,47.59359,-54.27349
2018-04-27 21:20:00+00:00,220.0,224.0,8.09,9.0,,47.59359,-54.27349
2018-04-27 21:30:00+00:00,224.0,223.0,7.68,9.09,,47.59359,-54.27349
2018-04-27 21:40:00+00:00,220.0,228.0,6.9,7.92,,47.59359,-54.27349
2018-04-27 21:50:00+00:00,219.0,217.0,6.58,7.45,,47.59359,-54.27349
2018-04-27 22:00:00+00:00,219.0,217.0,7.18,8.1,,47.59359,-54.27349
2018-04-27 22:10:00+00:00,222.0,221.0,7.67,8.3,,47.59359,-54.27349
2018-04-27 22:20:00+00:00,222.0,222.0,7.76,8.75,,47.59359,-54.27349
2018-04-27 22:30:00+00:00,222.0,226.0,6.85,7.65,,47.59359,-54.27349
2018-04-27 22:40:00+00:00,224.0,224.0,7.69,8.51,,47.59359,-54.27349
2018-04-27 22:50:00+00:00,223.0,225.0,8.1,8.86,,47.59359,-54.27349
2018-04-27 23:00:00+00:00,222.0,220.0,7.53,8.47,,47.59359,-54.27349
2018-04-27 23:10:00+00:00,220.0,217.0,7.92,8.72,,47.59359,-54.27349
2018-04-27 23:20:00+00:00,225.0,226.0,8.01,8.55,,47.59359,-54.27349
2018-04-27 23:30:00+00:00,228.0,230.0,8.68,9.35,,47.59359,-54.27349
2018-04-27 23:40:00+00:00,229.0,230.0,7.89,9.17,,47.59359,-54.27349
2018-04-27 23:50:00+00:00,226.0,226.0,7.52,8.34,,47.59359,-54.27349
